Location: *
(43.9905°S, 176.4941°W)
Time: 21:06:47
(UTC+00:00)

Cosmos 1805 - Pass Details

Date: 08 December 2019
Orbit: 524 x 532 km, 82.5° (Epoch: 18 January)

Event Time Altitude Azimuth Distance (km) Brightness Sun altitude
Exits shadow 08:58:58 23° 55° (NE) 1,158 4.4 -14.0°
Maximum altitude 09:00:18 29° 89° (E) 1,007 4.3 -14.2°
Drops below altitude 10° 09:03:44 10° 150° (SSE) 1,804 6.2 -14.6°
Sets 09:06:06 0° 161° (SSE) 2,705 7.4 -14.8°
